Regional Weather Roundup
Issued by NWS New Orleans/Baton Rouge, LA

Home | Current Version | Previous Version | Text Only | Print | Product List | Glossary On
Versions: 1 2 3 4 5 6 7 8 9 10 11 12 13 14 15 16 17 18 19 20 21 22 23 24 25 26 27 28 29 30 31 32 33 34 35 36 37 38 39 40 41 42 43 44 45 46 47 48 49 50
000
ASUS44 KLIX 300713
RWRLIX
NEW ORLEANS REGIONAL WEATHER ROUNDUP
NATIONAL WEATHER SERVICE NEW ORLEANS LA
200 AM CDT THU MAR 30 2017

NOTE: "FAIR" INDICATES FEW OR NO CLOUDS BELOW 12,000 FEET WITH NO
      SIGNIFICANT WEATHER AND/OR OBSTRUCTIONS TO VISIBILITY.
      SKY/WX - SKY CONDITION AND SIGNIFICANT WEATHER.
      TMP - AIR TEMPERATURE.     DP    - DEWPOINT TEMPERATURE.
      RH  - RELATIVE HUMIDITY.   PRES  - PRESSURE.
      HI  - HEAT INDEX.          WCI   - WIND CHILL INDEX.

*  THESE STATIONS ARE NOT NWS OR FAA STATIONS AND ARE NOT UNDER
   NWS QUALITY CONTROL.

LAZ038-040-048-061>063-065>067-069-300800-
SOUTHEAST LOUISIANA

CITY           SKY/WX    TMP DP  RH WIND       PRES   REMARKS
N.O. INTL ARPT CLOUDY    74  70  87 SE14      29.88S
N.O. LAKEFRONT MOCLDY    74  69  85 S10       29.89F
N.O. DOWNTOWN*   N/A     75  69  81 S9G17     29.89F
RESERVE*       NOT AVBL
SLIDELL        CLOUDY    73  69  87 S9        29.89F
BATON ROUGE    LGT RAIN  72  70  93 S8        29.87R
BOOTHVILLE     MOCLDY    73  71  93 S9G18     29.89F
BELLE CHASSE   MOCLDY   N/A N/A N/A S13       29.89S
BOGALUSA*        N/A     73  67  83 SE3       29.91F
GALLIANO*      CLOUDY    74  67  80 S12G17    29.88S
NEW ROADS*     TSTM      65  63  94 W12       29.89R
GONZALES*      NOT AVBL
HAMMOND*       CLOUDY    72  66  83 S5        29.87S
HOUMA*         MOCLDY    74  69  85 S16G23    29.87F
PORT FOURCHON* MOSUNNY   75  72  88 S14G21    29.87F

$$

MSZ070-080>082-300800-
SOUTHERN MISSISSIPPI

CITY           SKY/WX    TMP DP  RH WIND       PRES   REMARKS
MCCOMB         LGT RAIN  66  61  84 N9        29.90F
GULFPORT       CLOUDY    73  68  84 S10       29.90S
BILOXI         CLOUDY    73  68  84 S14G21    29.89F
PASCAGOULA     MOCLDY    72  66  81 S7        29.91F

$$

COASTAL OBSERVATIONS
LAKE AND NEARSHORE STATIONS

STATION/POSITION TIME  TEMP    WIND        PRES    WAVE
                       AIR SEA DIR/SP/G            HT/PER
                 (UTC) (F)     (DEG/KT/KT) (MB)    (FT/S)
PASCAGOULA       0648          160/ 11/ 16   N/A
WAVELAND YACHT   0648          180/ 10/ 13   N/A
GRAND ISLE       0648          180/ 10/ 14   N/A
SOUTHWEST PASS   0648          150/ 12/ 19   N/A
NEW CANAL        0648          140/  3/  5   N/A
SHELL BEACH      0648          160/ 12/ 15   N/A

OFFSHORE STATIONS

STATION/POSITION TIME  TEMP    WIND        PRES    WAVE
                       AIR SEA DIR/SP/G            HT/PER
                 (UTC) (F)     (DEG/KT/KT) (MB)    (FT/S)
64 S DAUPHIN ISL 0650   73 73  150/ 17/ 21 1012.5    5/ 6

$$




USA.gov is the U.S. government's official web portal to all federal, state and local government web resources and services.